Regional Weather Roundup
Issued by NWS Charleston, SC

Current Version | Previous Version | Graphics & Text | Print | Product List | Glossary On
Versions: 1 2 3 4 5 6 7 8 9 10 11 12 13 14 15 16 17 18 19 20 21 22 23 24 25 26 27 28 29 30 31 32 33 34 35 36 37 38 39 40 41 42 43 44 45 46 47 48 49 50
649 ASUS42 KCHS 271113 RWRCHS REGIONAL WEATHER ROUNDUP NATIONAL WEATHER SERVICE CHARLESTON SC 700 AM EDT TUE SEP 27 2016 NOTE: "FAIR" INDICATES FEW OR NO CLOUDS BELOW 12,000 FEET WITH NO SIGNIFICANT WEATHER AND/OR OBSTRUCTIONS TO VISIBILITY. NOT ALL STATIONS ARE QUALITY CONTROLLED. USE DATA WITH CAUTION... ESPECIALLY DEWPOINT OBSERVATIONS. SCZ027-030-031-034>040-042>050-271200- ...SOUTHEAST SOUTH CAROLINA... CITY SKY/WX TMP DP RH WIND PRES REMARKS N CHARLESTON CLOUDY 73 70 90 CALM 29.94S WATERFRONT PRK N/A 74 73 96 CALM 29.92F MOUNT PLEASANT LGT RAIN 72 72 100 CALM 29.95R JOHNS ISLAND LGT RAIN 73 72 94 CALM 29.95R PINOPOLIS N/A 73 72 94 CALM 29.87F MONCKS CORNER FAIR 70 68 94 CALM 29.95S FOG SUMMERVILLE FAIR 72 72 100 CALM 29.96R FOG BEAUFORT MCAS PTCLDY 74 72 93 NE8 29.94R BEAUFORT ARPT PTSUNNY 72 70 94 NE8 29.93S HILTON HEAD IS MOCLDY 73 73 100 NE7 29.95R WALTERBORO PTSUNNY 72 72 100 CALM 29.96R FOG ALLENDALE FOG 70 70 100 CALM 29.95S VSB<1/4 ...SOUTHERN MIDLANDS AND PEE DEE... CITY SKY/WX TMP DP RH WIND PRES REMARKS GEORGETOWN FAIR 70 70 100 CALM 29.96S KINGSTREE CLOUDY 70 68 94 CALM 29.96S FOG ORANGEBURG CLEAR 70 69 97 NE5 29.96S BARNWELL NOT AVBL AIKEN CLOUDY 66 64 94 CALM 30.01R MANNING PTSUNNY 70 68 94 CALM 29.96S FOG COLUMBIA CLEAR 69 66 90 CALM 29.97R SUMTER CLOUDY 70 68 94 NW3 29.94S FLORENCE CLOUDY 71 69 93 E5 29.96S MYRTLE BEACH MOCLDY 73 64 73 CALM 29.98R N MYRTLE BEACH CLOUDY 72 71 97 NW5 29.96S $$ GAZ063-065-086>088-099>101-113>116-118-119-134>141-150-271200- ...SOUTHEAST GEORGIA... CITY SKY/WX TMP DP RH WIND PRES REMARKS SAVANNAH ARPT FOG 72 70 93 N7 29.95R VSB 1/2 HUNTER AAF CLEAR 72 72 100 N5 29.92R FORT STEWART FOG 70 68 95 N1 29.92R VSB 3/4 STATESBORO CLEAR 69 69 100 CALM 29.96R SYLVANIA NOT AVBL CLAXTON FOG 67 67 100 CALM 29.96R VSB 1 ...CSRA...CENTRAL AND FAR SOUTHEAST GEORGIA... CITY SKY/WX TMP DP RH WIND PRES REMARKS THOMSON MOCLDY 65 65 100 CALM 30.03R AUGUSTA-BUSH PTCLDY 66 65 96 N8 29.97R FOG AUGUSTA-DANIEL CLEAR 70 66 87 CALM 29.98R SWAINSBORO FOG 68 68 100 CALM 29.97F VSB 1/4 VIDALIA PTCLDY 68 68 100 CALM 29.96F FOG EASTMAN FOG 67 67 99 CALM 29.99S VSB 1/4 HAZLEHURST FOG 69 69 100 CALM 29.95S VSB 1/4 ALMA CLOUDY 69 68 96 NW3 29.96R FOG WAYCROSS CLOUDY 71 71 100 CALM 29.95R FOG JESUP FAIR 70 70 100 CALM 29.95R FOG BAXLEY FOG 70 70 100 CALM 29.96R VSB 1/2 BRUNSWICK PTCLDY 72 72 100 CALM 29.93S SAINT SIMONS PTCLDY 72 71 97 NW6 29.92R $$ SCZ027-028-034-036>038-045-046-048>050-GAZ119-141-271200- ...LAKE AND SUPPLEMENTAL COASTAL OBSERVATIONS... STATION/POSITION TIME TEMP WIND PRES WAVE SWELL AIR SEA DIR/SP/G HT/PER HT/PER/DIR (UTC) (F) (DEG/KT/KT) (MB) (FT/S) (FT/S/D) WINYAH BAY 0945 74 320/ 2 1013.0 LAKE MURRAY 1020 72 CALM / 2 1014.6 ACE BASIN NERRS 0945 72 CALM 1014.0 FORT PULASKI 1030 73 81 10/ 5/ 6 1013.8R SAPELO ISLAND 1000 74 360/ 6 1013.0 $$ ANZ835-935-AMZ111-154-330-350-352-354-370-450-454-472-271200- ...C-MAN AND BUOY OBSERVATIONS... STATION/POSITION TIME TEMP WIND PRES WAVE SWELL AIR SEA DIR/SP/G HT/PER HT/PER/DIR (UTC) (F) (DEG/KT/KT) (MB) (FT/S) (FT/S/D) BUOY 41004 1050 75 82 70/ 8/ 10 1013.4R 3/ 9 3/100/ 9 BUOY 41008 1050 77 81 60/ 6/ 8 1012.6R 3/ 8 3/100/ 8 FOLLY BEACH CMAN 1000 73 270/ 4/ 4 1014.2R CAPERS NEARSHORE 1008 78 81 80/ 8/ 12 1013.6S FRIPP NEARSHORE 1008 74 81 60/ 10/ 12 1013.2F STATION/POSITION TIME TEMP WIND PRES WAVE SWELL AIR SEA DIR/SP/G HT/PER HT/PER/DIR (UTC) (F) (DEG/KT/KT) (MB) (FT/S) (FT/S/D) 5E ST. MARYS GA 1001 82 N/A 3/ 5 FRYING PAN BUOY 1050 79 82 50/ 4/ 6 1013.5F 3/ 7 3/120/ 7 BUOY 41025 1050 79 84 160/ 12/ 16 1014.6S 4/ 9 2/ 90/ 9 CAPE LOOKOUT NC 1000 79 130/ 9/ 10 1014.3F BUOY 41002 1050 76 83 120/ 19/ 27 1013.3R 6/ 6 2/ 90/10 BUOY 41010 NOT AVBL ST AUGUSTINE FL 1100 73 83 290/ 3/ 4 1014.4R $$

USA.gov is the U.S. government's official web portal to all federal, state and local government web resources and services.